[[{"header":{"parameterUnit":"m.s-1","parameterCategory":1,"la1":30.2991,"la2":30.254,"lo1":-89.0895,"lo2":-89.0444,"dy":0.0017,"dx":0.0017,"nx":28,"ny":28,"refTime":"2025-12-19T09:00:00:Z","depth":0,"parameterNumber":2,"parameterNumberName":"U-component_of_WINDS"},"data":[0,0,0,0,0,0,0,0,0,0,0,0,0,0,0,0,0,0,0,0,0,0,0,0,0,0,0,0,0,0,0,0,0,0,0,0,0,0,0,0,0,0,0,0,0,0,0,0,0,0,0,0,0,0,0,0,0,0,-2.1813,-2.1813,0,-2.1831,-2.1832,-2.1832,-2.1733,-2.173,-2.1727,-2.1725,-2.1745,-2.1748,-2.1751,0,0,0,0,0,0,0,0,0,0,0,0,0,-2.1694,-2.1697,-2.1813,-2.1813,-2.1813,-2.1831,-2.1832,-2.1832,-2.1734,-2.173,-2.1727,-2.1723,-2.1744,-2.1748,-2.1751,0,0,0,0,0,0,0,0,0,0,0,0,0,-2.1732,-2.1697,-2.1813,-2.1766,-2.1762,-2.1831,-2.1832,-2.1832,-2.1734,-2.173,-2.1726,-2.1722,-2.1743,-2.1747,-2.1752,-2.1867,0,0,-2.1767,-2.1769,0,0,0,0,0,0,0,0,-2.173,-2.1737,-2.1773,-2.177,-2.1765,-2.1775,-2.1797,-2.1844,-2.1735,-2.1745,-2.1725,-2.172,-2.1759,-2.1762,-2.1775,-2.1868,-2.1868,-2.1767,-2.177,-2.1772,-2.1773,0,0,0,0,0,0,0,-2.1728,-2.1735,-2.182,-2.1774,-2.1769,-2.1745,-2.1746,-2.1805,-2.1776,-2.1744,-2.1737,-2.174,-2.1756,-2.177,-2.1774,-2.1869,-2.1767,-2.1771,-2.1774,-2.1776,-2.2058,-2.2062,0,0,0,0,0,0,-2.1731,-2.1734,-2.182,-2.1821,-2.1737,-2.1751,-2.1752,-2.1777,-2.1775,-2.177,-2.1744,-2.1736,-2.1764,-2.1769,-2.1775,-2.191,-2.1772,-2.1776,-2.1779,-2.2053,-2.2059,-2.2064,0,0,0,0,0,0,-2.1729,-2.174,-2.1819,-2.1775,-2.1784,-2.1757,-2.1786,-2.1779,-2.1794,-2.1775,-2.1769,-2.1764,-2.1761,-2.1768,-2.1845,-2.1909,-2.1779,-2.1783,-2.2048,-2.2055,-2.2061,-2.2181,0,0,0,0,0,0,-2.1726,-2.1739,-2.1783,-2.1777,-2.1786,-2.1889,-2.179,-2.1783,-2.1802,-2.1791,-2.1792,-2.1788,-2.1758,-2.1838,-2.185,-2.1914,-2.1787,-2.2042,-2.2051,-2.2059,-2.2171,-2.2191,-2.2208,0,0,0,0,0,-2.1722,-2.1816,-2.1785,-2.1796,-2.184,-2.1892,-2.1898,-2.1861,-2.1808,-2.1851,-2.1839,-2.1788,-2.19,-2.1847,-2.1859,-2.1925,-2.2038,-2.2048,-2.2058,-2.2163,-2.2187,-2.2208,0,0,0,0,0,0,-2.183,-2.1814,-2.178,-2.1875,-2.1886,-2.1876,-2.1929,-2.1888,-2.1915,-2.1904,-2.1857,-2.1858,-2.1943,-2.1941,-2.1882,-2.2037,-2.196,-2.1973,-2.2035,-2.2058,-2.2076,-2.2076,-2.1791,0,0,0,0,0,-2.1864,-2.1908,-2.1892,-2.1977,-2.1984,-2.1956,-2.1978,-2.1949,-2.1958,-2.1962,-2.1956,-2.1967,-2.2005,-2.2031,-2.2065,-2.217,-2.2169,-2.2222,-2.224,-2.2255,-2.2268,-2.2325,-2.2348,-2.2098,-2.2098,-2.2098,0,0,-2.1937,-2.1933,-2.1964,-2.1999,-2.2004,-2.2051,-2.1961,-2.2014,-2.2049,-2.1971,-2.2043,-2.2039,-2.2048,-2.214,-2.218,-2.2142,-2.2337,-2.2269,-2.2281,-2.2285,-2.2338,-2.2362,-2.2383,-2.2105,-2.2104,-2.2103,0,0,-2.2093,-2.2094,-2.2166,-2.2173,-2.2181,-2.2162,-2.2179,-2.2176,-2.217,-2.2241,-2.2184,-2.2224,-2.229,-2.23,-2.2314,-2.2474,-2.2429,-2.2486,-2.2584,-2.264,-2.2659,-2.2677,-2.2736,-2.2757,-2.2498,-2.2499,-2.2499,0,-2.2182,-2.225,-2.2208,-2.2266,-2.2283,-2.2214,-2.2287,-2.2295,-2.2315,-2.2329,-2.2284,-2.2366,-2.2368,-2.2462,-2.2501,-2.2513,-2.2533,-2.2487,-2.266,-2.2677,-2.2692,-2.2748,-2.277,-2.2506,-2.2505,-2.2504,-2.2503,0,-2.236,-2.2409,-2.2465,-2.2486,-2.251,-2.2575,-2.2543,-2.2572,-2.254,-2.2526,-2.26,-2.26,-2.2633,-2.2652,-2.2622,-2.2742,-2.2718,-2.2668,-2.259,-2.2724,-2.2776,-2.2796,-2.2516,-2.2513,-2.2511,-2.2509,0,0,-2.2586,-2.2582,-2.2604,-2.2613,-2.2618,-2.2654,-2.2716,-2.2748,-2.2775,-2.279,-2.2842,-2.2899,-2.2853,-2.2868,-2.2838,-2.2887,-2.3016,-2.2831,-2.283,-2.2867,-2.315,-2.319,-2.3215,-2.2985,-2.2989,-2.2992,-2.315,0,-2.274,-2.2846,-2.281,-2.2918,-2.2963,-2.2897,-2.2951,-2.2961,-2.2949,-2.2985,-2.2971,-2.3014,-2.2948,-2.2957,-2.3003,-2.2991,-2.3073,-2.2979,-2.3035,-2.3037,-2.3036,-2.3242,-2.3283,-2.3432,-2.317,-2.3173,-2.3176,0,-2.2935,-2.2958,-2.3071,-2.3069,-2.3086,-2.3136,-2.3162,-2.3198,-2.3207,-2.3194,-2.3212,-2.3172,-2.3233,-2.3154,-2.3238,-2.3175,-2.3195,-2.3193,-2.3198,-2.3203,-2.3116,-2.3255,-2.3479,-2.3502,-2.3207,-2.3204,-2.3202,0,-2.3091,-2.315,-2.3226,-2.3235,-2.3234,-2.327,-2.3271,-2.3276,-2.3298,-2.3321,-2.3335,-2.3365,-2.3382,-2.3406,-2.3376,-2.332,-2.3465,-2.3383,-2.3458,-2.3459,-2.3493,-2.3492,-2.3726,-2.3503,-2.3503,-2.3503,-2.3502,0,-2.3268,-2.334,-2.3296,-2.3343,-2.3422,-2.3379,-2.3458,-2.3452,-2.3457,-2.3502,-2.3446,-2.3489,-2.3445,-2.3485,-2.3461,-2.3535,-2.3543,-2.3535,-2.3529,-2.3542,-2.3543,-2.3556,-2.3545,-2.3508,-2.3507,-2.3506,-2.3505,0,-2.3456,-2.3429,-2.3508,-2.35,-2.3499,-2.3558,-2.3551,-2.3595,-2.3578,-2.3636,-2.3647,-2.3622,-2.3665,-2.3636,-2.368,-2.3664,-2.3762,-2.374,-2.3759,-2.3754,-2.3832,-2.3825,-2.4084,-2.4116,-2.3871,-2.3874,-2.3876,0,-2.3572,-2.3626,-2.3624,-2.365,-2.3655,-2.3697,-2.3719,-2.3679,-2.3704,-2.3718,-2.376,-2.3799,-2.3828,-2.39,-2.3886,-2.392,-2.3899,-2.3987,-2.3904,-2.3916,-2.3903,-2.3901,-2.3906,-2.4005,-2.4008,-2.401,-2.4012,0,-2.3781,-2.3765,-2.3799,-2.3829,-2.3856,-2.3877,-2.3894,-2.3919,-2.3878,-2.391,-2.3953,-2.3976,-2.402,-2.406,-2.4088,-2.4089,-2.4045,-2.4038,-2.4058,-2.4072,-2.4082,-2.408,-2.3807,-2.4033,-2.4031,-2.4029,-2.4028,-2.4027,-2.3938,-2.3983,-2.3989,-2.4029,-2.4037,-2.4054,-2.4095,-2.4083,-2.4119,-2.4152,-2.4126,-2.4179,-2.4187,-2.4219,-2.4226,-2.4267,-2.4231,-2.4259,-2.4266,-2.4275,-2.4286,-2.4074,-2.4272,-2.4271,-2.4271,-2.427,-2.427,0,-2.4145,-2.4146,-2.4183,-2.4208,-2.424,-2.4194,-2.421,-2.424,-2.4287,-2.4297,-2.4327,-2.4378,-2.4416,-2.4405,-2.4439,-2.4474,-2.4455,-2.4485,-2.4483,-2.4484,-2.4315,-2.4296,-2.45,-2.45,-2.45,-2.45,-2.45,-2.45,-2.4257,-2.4332,-2.4317,-2.4396,-2.4395,-2.4447,-2.446,-2.4476,-2.4484,-2.4544,-2.4575,-2.4567,-2.457,-2.4603,-2.4637,-2.4632,-2.4648,-2.4686,-2.4675,-2.4518,-2.4496,-2.4474,-2.4456,-2.469,-2.469,-2.484,-2.4841,-2.4843]},{"header":{"parameterUnit":"m.s-1","parameterCategory":1,"la1":30.2991,"la2":30.254,"lo1":-89.0895,"lo2":-89.0444,"dy":0.0017,"dx":0.0017,"nx":28,"ny":28,"refTime":"2025-12-19T09:00:00:Z","depth":0,"parameterNumber":3,"parameterNumberName":"V-component_of_WINDS"},"data":[0,0,0,0,0,0,0,0,0,0,0,0,0,0,0,0,0,0,0,0,0,0,0,0,0,0,0,0,0,0,0,0,0,0,0,0,0,0,0,0,0,0,0,0,0,0,0,0,0,0,0,0,0,0,0,0,0,0,-1.5566,-1.5567,0,-1.5648,-1.5649,-1.565,-1.5655,-1.5654,-1.5653,-1.5652,-1.5734,-1.5737,-1.574,0,0,0,0,0,0,0,0,0,0,0,0,0,-1.5411,-1.5414,-1.5566,-1.5567,-1.5568,-1.5648,-1.5649,-1.5651,-1.5655,-1.5654,-1.5652,-1.5651,-1.5733,-1.5737,-1.5741,0,0,0,0,0,0,0,0,0,0,0,0,0,-1.5484,-1.5415,-1.5566,-1.558,-1.5582,-1.5648,-1.565,-1.5651,-1.5655,-1.5654,-1.5652,-1.5651,-1.5732,-1.5737,-1.5741,-1.5798,0,0,-1.5755,-1.5757,0,0,0,0,0,0,0,0,-1.548,-1.549,-1.5577,-1.5579,-1.5582,-1.564,-1.5625,-1.57,-1.5655,-1.5627,-1.5652,-1.565,-1.5704,-1.5711,-1.5729,-1.5802,-1.5806,-1.5756,-1.5758,-1.576,-1.5762,0,0,0,0,0,0,0,-1.5475,-1.5486,-1.5599,-1.5578,-1.5581,-1.5582,-1.559,-1.5639,-1.5673,-1.563,-1.563,-1.564,-1.5705,-1.5725,-1.5731,-1.5807,-1.5756,-1.576,-1.5763,-1.5764,-1.593,-1.5931,0,0,0,0,0,0,-1.5467,-1.5482,-1.5596,-1.5601,-1.5526,-1.5586,-1.5595,-1.5623,-1.5672,-1.5678,-1.5641,-1.564,-1.5718,-1.5726,-1.5734,-1.5804,-1.576,-1.5765,-1.5767,-1.5928,-1.593,-1.5932,0,0,0,0,0,0,-1.5464,-1.5478,-1.5593,-1.5542,-1.5557,-1.559,-1.562,-1.5625,-1.5645,-1.5681,-1.5686,-1.5655,-1.5717,-1.5728,-1.5782,-1.5807,-1.5767,-1.5771,-1.5926,-1.5929,-1.5931,-1.5944,0,0,0,0,0,0,-1.546,-1.5476,-1.5499,-1.5542,-1.5559,-1.564,-1.5622,-1.5628,-1.5653,-1.5652,-1.5696,-1.5701,-1.5717,-1.5775,-1.5787,-1.5813,-1.5775,-1.5924,-1.5927,-1.593,-1.5942,-1.5947,-1.5951,0,0,0,0,0,-1.5454,-1.5499,-1.55,-1.5514,-1.5588,-1.5642,-1.5651,-1.5668,-1.5655,-1.5678,-1.57,-1.57,-1.5802,-1.5781,-1.5794,-1.5821,-1.5923,-1.5927,-1.593,-1.594,-1.5946,-1.5951,0,0,0,0,0,0,-1.5457,-1.5505,-1.5507,-1.5567,-1.56,-1.5642,-1.5671,-1.5674,-1.5711,-1.5709,-1.5728,-1.5737,-1.5792,-1.5812,-1.5787,-1.5879,-1.5861,-1.5867,-1.5864,-1.587,-1.5875,-1.5869,-1.5779,0,0,0,0,0,-1.5465,-1.5505,-1.5544,-1.5594,-1.5611,-1.5638,-1.5662,-1.5672,-1.5707,-1.5721,-1.5748,-1.5781,-1.5821,-1.5846,-1.5885,-1.5944,-1.5954,-1.597,-1.5974,-1.5978,-1.5984,-1.6016,-1.6024,-1.5944,-1.5944,-1.5944,0,0,-1.5482,-1.5513,-1.5537,-1.5595,-1.5622,-1.5663,-1.565,-1.5693,-1.5723,-1.5727,-1.5781,-1.5801,-1.584,-1.5897,-1.5924,-1.5916,-1.6008,-1.5983,-1.5985,-1.5989,-1.6021,-1.6028,-1.6035,-1.5946,-1.5946,-1.5946,0,0,-1.5532,-1.556,-1.5604,-1.5631,-1.5672,-1.569,-1.5701,-1.5742,-1.5756,-1.581,-1.5814,-1.5849,-1.5917,-1.5945,-1.5967,-1.6027,-1.6028,-1.6039,-1.6064,-1.6096,-1.6102,-1.6108,-1.6129,-1.6136,-1.6044,-1.6045,-1.6045,0,-1.5547,-1.5609,-1.5626,-1.567,-1.5695,-1.5701,-1.5746,-1.5771,-1.5822,-1.5839,-1.583,-1.5915,-1.5941,-1.6005,-1.6019,-1.6038,-1.605,-1.6035,-1.61,-1.6106,-1.6111,-1.6132,-1.614,-1.6046,-1.6045,-1.6045,-1.6045,0,-1.5626,-1.5668,-1.5699,-1.5749,-1.5777,-1.5821,-1.5844,-1.5871,-1.5879,-1.5897,-1.5952,-1.5983,-1.6028,-1.6044,-1.6051,-1.6108,-1.6102,-1.6096,-1.6078,-1.612,-1.6139,-1.6147,-1.6047,-1.6047,-1.6046,-1.6046,0,0,-1.5681,-1.574,-1.5751,-1.5773,-1.5819,-1.5851,-1.5895,-1.5939,-1.5962,-1.5997,-1.6033,-1.609,-1.6085,-1.611,-1.6121,-1.6149,-1.6194,-1.6139,-1.614,-1.6148,-1.6259,-1.6263,-1.6272,-1.6195,-1.6196,-1.6197,-1.6255,0,-1.5737,-1.5816,-1.5832,-1.59,-1.5939,-1.5944,-1.5982,-1.6014,-1.6032,-1.6067,-1.6087,-1.6128,-1.6117,-1.6133,-1.616,-1.6183,-1.6216,-1.6179,-1.6229,-1.623,-1.6219,-1.6282,-1.6288,-1.6341,-1.6263,-1.6264,-1.6265,0,-1.5813,-1.585,-1.5921,-1.5961,-1.5978,-1.6012,-1.6054,-1.6088,-1.6123,-1.6134,-1.6163,-1.617,-1.6215,-1.6195,-1.6256,-1.623,-1.6251,-1.6265,-1.6268,-1.6273,-1.625,-1.629,-1.6358,-1.6366,-1.6278,-1.6277,-1.6276,0,-1.5846,-1.5914,-1.5966,-1.5984,-1.6032,-1.6056,-1.6076,-1.6111,-1.6136,-1.6172,-1.6188,-1.6229,-1.6251,-1.6282,-1.63,-1.6284,-1.636,-1.6341,-1.637,-1.637,-1.6386,-1.6385,-1.6459,-1.64,-1.64,-1.6399,-1.6399,0,-1.5907,-1.5951,-1.5981,-1.6013,-1.6062,-1.608,-1.6127,-1.6147,-1.6178,-1.6213,-1.622,-1.6253,-1.6274,-1.631,-1.6324,-1.6372,-1.6382,-1.6392,-1.6396,-1.6392,-1.6391,-1.6406,-1.6403,-1.6402,-1.6401,-1.6401,-1.64,0,-1.5953,-1.5975,-1.6032,-1.6072,-1.6083,-1.6117,-1.6151,-1.6182,-1.62,-1.6245,-1.6256,-1.6284,-1.6327,-1.6347,-1.64,-1.6409,-1.6464,-1.6465,-1.6452,-1.6454,-1.6481,-1.6479,-1.6568,-1.6581,-1.6513,-1.6513,-1.6514,0,-1.5991,-1.6024,-1.6068,-1.6093,-1.6114,-1.6153,-1.6179,-1.6198,-1.6224,-1.6267,-1.6292,-1.6335,-1.637,-1.6437,-1.6462,-1.6502,-1.6504,-1.6532,-1.651,-1.6505,-1.6504,-1.6502,-1.6505,-1.6536,-1.6537,-1.6538,-1.6538,0,-1.6055,-1.6064,-1.6101,-1.6143,-1.6174,-1.6207,-1.6239,-1.6259,-1.6282,-1.6312,-1.6355,-1.6383,-1.6436,-1.6478,-1.652,-1.654,-1.6543,-1.6545,-1.6554,-1.655,-1.6542,-1.6547,-1.6464,-1.6543,-1.6542,-1.6542,-1.6542,-1.6542,-1.6098,-1.6128,-1.6163,-1.6205,-1.6231,-1.6261,-1.6292,-1.6314,-1.6351,-1.6396,-1.6405,-1.6451,-1.6484,-1.6541,-1.6563,-1.6598,-1.6592,-1.6605,-1.6608,-1.6611,-1.6612,-1.6536,-1.6606,-1.6606,-1.6606,-1.6606,-1.6606,0,-1.6163,-1.6186,-1.6223,-1.6269,-1.6301,-1.6301,-1.6337,-1.6364,-1.6405,-1.6436,-1.647,-1.652,-1.6561,-1.6589,-1.663,-1.6653,-1.6655,-1.6663,-1.6662,-1.6666,-1.6616,-1.6604,-1.6661,-1.6661,-1.6661,-1.6661,-1.6661,-1.6661,-1.62,-1.6251,-1.6264,-1.6328,-1.635,-1.6396,-1.6416,-1.6444,-1.6469,-1.6525,-1.6558,-1.6576,-1.6606,-1.665,-1.6687,-1.6694,-1.6708,-1.6717,-1.6723,-1.6676,-1.667,-1.6664,-1.6654,-1.672,-1.672,-1.6771,-1.6772,-1.6772]}]]